When you browse on this site, cookies collect data to enhance your experience and personalize the content and advertising you see.
Visit our Privacy Policy to learn more. By continuing to use the site, you agree to this use of cookies and data.
  • In Switzerland
  • List of Countries
  • For 7 days
  • Water Temperature
  • Weather Map
  • Weather Widgets
  • user-avatar
    Login

    Hourly Weather Rechytsa

    Today, 16 October, Wednesday

    Time Temperature Precipitation Wind Pressure Humidity
    00:00 +12°C° 0 mm 3 mps 754 mmHg 77%
    01:00 +12°C° 0 mm 3 mps 754 mmHg 78%
    02:00 +12°C° 0 mm 3 mps 754 mmHg 78%
    03:00 +12°C° 0 mm 3 mps 754 mmHg 80%
    04:00 +12°C° 0 mm 3 mps 754 mmHg 82%
    05:00 +12°C° 0 mm 3 mps 753 mmHg 84%
    06:00 +12°C° 0 mm 3 mps 753 mmHg 82%
    07:00 +13°C° 0 mm 4 mps 753 mmHg 79%
    08:00 +14°C° 0 mm 4 mps 754 mmHg 75%
    09:00 +15°C° 0 mm 5 mps 753 mmHg 68%
    10:00 +17°C° 0 mm 5 mps 753 mmHg 61%
    11:00 +20°C° 0 mm 5 mps 753 mmHg 55%
    12:00 +20°C° 0 mm 5 mps 753 mmHg 52%
    13:00 +21°C° 0 mm 5 mps 753 mmHg 49%
    14:00 +21°C° 0 mm 5 mps 752 mmHg 46%
    15:00 +20°C° 0 mm 5 mps 752 mmHg 50%
    16:00 +19°C° 0 mm 5 mps 752 mmHg 54%
    17:00 +17°C° 0 mm 4 mps 751 mmHg 58%
    18:00 +17°C° 0 mm 4 mps 751 mmHg 59%
    19:00 +15°C° 0 mm 4 mps 752 mmHg 61%
    20:00 +14°C° 0 mm 4 mps 752 mmHg 63%
    21:00 +14°C° 0 mm 4 mps 752 mmHg 63%
    22:00 +13°C° 0 mm 4 mps 752 mmHg 62%
    23:00 +13°C° 0 mm 4 mps 752 mmHg 62%

    Tomorrow, 17 October, Thursday

    Time Temperature Precipitation Wind Pressure Humidity
    00:00 +12°C° 0 mm 4 mps 752 mmHg 62%
    01:00 +12°C° 0 mm 3 mps 752 mmHg 62%
    02:00 +11°C° 0 mm 3 mps 752 mmHg 62%
    03:00 +11°C° 0 mm 3 mps 751 mmHg 63%
    04:00 +10°C° 0 mm 3 mps 751 mmHg 65%
    05:00 +10°C° 0 mm 3 mps 751 mmHg 66%
    06:00 +10°C° 0 mm 3 mps 751 mmHg 66%
    07:00 +11°C° 0 mm 3 mps 751 mmHg 66%
    08:00 +11°C° 0 mm 3 mps 751 mmHg 66%
    09:00 +13°C° 0 mm 3 mps 751 mmHg 65%
    10:00 +14°C° 0 mm 3 mps 752 mmHg 63%
    11:00 +17°C° 0 mm 3 mps 752 mmHg 62%
    12:00 +18°C° 0 mm 3 mps 752 mmHg 59%
    13:00 +19°C° 0 mm 3 mps 752 mmHg 57%
    14:00 +20°C° 0 mm 4 mps 752 mmHg 54%
    15:00 +18°C° 0 mm 3 mps 752 mmHg 57%
    16:00 +16°C° 0 mm 3 mps 752 mmHg 60%
    17:00 +15°C° 0 mm 2 mps 752 mmHg 64%
    18:00 +14°C° 0 mm 2 mps 752 mmHg 66%
    19:00 +13°C° 0 mm 2 mps 752 mmHg 69%
    20:00 +12°C° 0 mm 2 mps 753 mmHg 71%
    21:00 +12°C° 0 mm 2 mps 753 mmHg 74%
    22:00 +12°C° 0 mm 2 mps 753 mmHg 76%
    23:00 +10°C° 0 mm 2 mps 753 mmHg 79%

    Day after tomorrow, 18 October, Friday

    Time Temperature Precipitation Wind Pressure Humidity
    00:00 +10°C° 0 mm 2 mps 753 mmHg 81%
    01:00 +9°C° 0 mm 2 mps 753 mmHg 83%
    02:00 +9°C° 0 mm 2 mps 753 mmHg 86%
    03:00 +10°C° 0 mm 1 mps 753 mmHg 87%
    04:00 +10°C° 0 mm 1 mps 753 mmHg 88%
    05:00 +10°C° 0 mm 1 mps 753 mmHg 89%
    06:00 +10°C° 0 mm 1 mps 754 mmHg 86%
    07:00 +11°C° 0 mm 1 mps 754 mmHg 83%
    08:00 +11°C° 0 mm 1 mps 754 mmHg 81%
    09:00 +13°C° 0 mm 1 mps 754 mmHg 74%
    10:00 +15°C° 0 mm 2 mps 754 mmHg 68%
    11:00 +17°C° 0 mm 2 mps 754 mmHg 61%
    12:00 +18°C° 0 mm 1 mps 754 mmHg 60%
    13:00 +19°C° 0 mm 1 mps 754 mmHg 58%
    14:00 +20°C° 0 mm 1 mps 753 mmHg 56%
    15:00 +18°C° 0 mm 1 mps 753 mmHg 62%
    16:00 +16°C° 0 mm 1 mps 753 mmHg 68%
    17:00 +15°C° 0 mm 1 mps 753 mmHg 73%
    18:00 +14°C° 0 mm 1 mps 753 mmHg 75%
    19:00 +14°C° 0 mm 1 mps 753 mmHg 78%
    20:00 +13°C° 0 mm 1 mps 753 mmHg 80%
    21:00 +13°C° 0 mm 1 mps 753 mmHg 80%
    22:00 +13°C° 0 mm 1 mps 753 mmHg 81%
    23:00 +12°C° 0 mm 1 mps 754 mmHg 81%

    19 October, Saturday

    Time Temperature Precipitation Wind Pressure Humidity
    00:00 +12°C° 0 mm 1 mps 754 mmHg 81%
    01:00 +12°C° 0 mm 2 mps 754 mmHg 81%
    02:00 +12°C° 0 mm 2 mps 754 mmHg 81%
    03:00 +12°C° 0 mm 2 mps 754 mmHg 80%
    04:00 +10°C° 0 mm 2 mps 754 mmHg 80%
    05:00 +10°C° 0 mm 2 mps 754 mmHg 80%
    06:00 +12°C° 0 mm 2 mps 754 mmHg 77%
    07:00 +11°C° 0 mm 3 mps 754 mmHg 75%
    08:00 +12°C° 0 mm 3 mps 754 mmHg 73%
    09:00 +12°C° 0 mm 3 mps 754 mmHg 70%
    10:00 +13°C° 0 mm 3 mps 754 mmHg 66%
    11:00 +14°C° 0 mm 3 mps 754 mmHg 63%
    12:00 +16°C° 0 mm 3 mps 754 mmHg 60%
    13:00 +17°C° 0 mm 3 mps 754 mmHg 57%
    14:00 +18°C° 0 mm 3 mps 753 mmHg 54%
    15:00 +17°C° 0 mm 3 mps 753 mmHg 59%
    16:00 +16°C° 0 mm 3 mps 753 mmHg 65%
    17:00 +14°C° 0 mm 3 mps 753 mmHg 70%
    18:00 +13°C° 0 mm 3 mps 753 mmHg 71%
    19:00 +12°C° 0 mm 3 mps 753 mmHg 72%
    20:00 +12°C° 0 mm 3 mps 754 mmHg 73%
    21:00 +12°C° 0 mm 3 mps 754 mmHg 73%
    22:00 +11°C° 0 mm 3 mps 754 mmHg 73%
    23:00 +11°C° 0 mm 3 mps 754 mmHg 73%

    20 October, Sunday

    Time Temperature Precipitation Wind Pressure Humidity
    00:00 +11°C° 0 mm 3 mps 754 mmHg 74%
    01:00 +11°C° 0 mm 3 mps 754 mmHg 75%
    02:00 +10°C° 0 mm 3 mps 754 mmHg 77%
    03:00 +10°C° 0 mm 3 mps 754 mmHg 79%
    04:00 +10°C° 0 mm 3 mps 754 mmHg 81%
    05:00 +10°C° 0 mm 3 mps 754 mmHg 83%
    06:00 +10°C° 0 mm 3 mps 754 mmHg 82%
    07:00 +11°C° 0 mm 3 mps 754 mmHg 80%
    08:00 +11°C° 0 mm 3 mps 754 mmHg 78%
    09:00 +13°C° 0 mm 4 mps 754 mmHg 71%
    10:00 +15°C° 0 mm 4 mps 755 mmHg 63%
    11:00 +18°C° 0 mm 4 mps 755 mmHg 56%
    12:00 +19°C° 0 mm 4 mps 754 mmHg 53%
    13:00 +20°C° 0 mm 4 mps 754 mmHg 50%
    14:00 +21°C° 0 mm 4 mps 754 mmHg 47%
    15:00 +19°C° 0 mm 4 mps 754 mmHg 52%
    16:00 +18°C° 0 mm 3 mps 754 mmHg 57%
    17:00 +16°C° 0 mm 3 mps 754 mmHg 62%
    18:00 +16°C° 0 mm 3 mps 754 mmHg 64%
    19:00 +14°C° 0 mm 3 mps 754 mmHg 65%
    20:00 +13°C° 0 mm 3 mps 755 mmHg 67%
    21:00 +13°C° 0 mm 3 mps 755 mmHg 68%
    22:00 +13°C° 0 mm 3 mps 755 mmHg 68%
    23:00 +13°C° 0 mm 3 mps 755 mmHg 69%

    21 October, Monday

    Time Temperature Precipitation Wind Pressure Humidity
    00:00 +12°C° 0 mm 3 mps 755 mmHg 70%
    01:00 +12°C° 0 mm 3 mps 755 mmHg 71%
    02:00 +12°C° 0 mm 3 mps 755 mmHg 71%
    03:00 +11°C° 0 mm 3 mps 755 mmHg 71%
    04:00 +11°C° 0 mm 3 mps 755 mmHg 71%
    05:00 +11°C° 0 mm 3 mps 755 mmHg 71%
    06:00 +11°C° 0 mm 4 mps 755 mmHg 70%
    07:00 +11°C° 0 mm 4 mps 755 mmHg 68%
    08:00 +12°C° 0 mm 4 mps 755 mmHg 67%
    09:00 +13°C° 0 mm 4 mps 755 mmHg 63%
    10:00 +15°C° 0 mm 4 mps 755 mmHg 59%
    11:00 +18°C° 0 mm 4 mps 755 mmHg 55%
    12:00 +18°C° 0 mm 4 mps 755 mmHg 54%
    13:00 +19°C° 0 mm 4 mps 755 mmHg 54%
    14:00 +20°C° 0 mm 4 mps 755 mmHg 53%
    15:00 +19°C° 0 mm 3 mps 755 mmHg 59%
    16:00 +18°C° 0 mm 2 mps 755 mmHg 65%
    17:00 +16°C° 0 mm 2 mps 755 mmHg 72%
    18:00 +15°C° 0 mm 2 mps 755 mmHg 76%
    19:00 +15°C° 0 mm 2 mps 755 mmHg 80%
    20:00 +14°C° 0 mm 1 mps 756 mmHg 84%
    21:00 +14°C° 0 mm 1 mps 756 mmHg 86%
    22:00 +13°C° 0 mm 1 mps 756 mmHg 88%
    23:00 +13°C° 0 mm 1 mps 756 mmHg 90%
    Show more